This is the latest recevied weather packets stored in our database for station/object IW0REF-14. If no packets are shown the sender has not sent any weather packets the latest 10 day(s).
| Time | Temp. | Humidity | Pressure | Rain* | Wind** | Luminosity | Snow |
|---|---|---|---|---|---|---|---|
| 1777088478 | 12.22° C | 20% | 1013.2 hPa | - | - | - | - |
| 1777087581 | 11.67° C | 20% | 1013.1 hPa | - | - | - | - |
| 1777086680 | 11.11° C | 22% | 1013.2 hPa | - | - | - | - |
| 1777085779 | 11.11° C | 21% | 1013.2 hPa | - | - | - | - |
| 1777084878 | 11.11° C | 22% | 1013.2 hPa | - | - | - | - |
| 1777083978 | 11.11° C | 24% | 1013.1 hPa | - | - | - | - |
| 1777083078 | 10.56° C | 25% | 1013.1 hPa | - | - | - | - |
| 1777082178 | 11.11° C | 24% | 1013 hPa | - | - | - | - |
| 1777081278 | 10.56° C | 24% | 1012.9 hPa | - | - | - | - |
| 1777080381 | 10.56° C | 26% | 1012.8 hPa | - | - | - | - |
| 1777079468 | 10.56° C | 25% | 1012.8 hPa | - | - | - | - |
| 1777078568 | 10.56° C | 27% | 1012.9 hPa | - | - | - | - |
| 1777077668 | 10.56° C | 26% | 1013 hPa | - | - | - | - |
| 1777076768 | 10.56° C | 28% | 1013 hPa | - | - | - | - |
| 1777075867 | 10.56° C | 29% | 1013.2 hPa | - | - | - | - |
| 1777074970 | 10.56° C | 29% | 1013.2 hPa | - | - | - | - |
| 1777074067 | 10.56° C | 36% | 1013.3 hPa | - | - | - | - |
| 1777073167 | 10.56° C | 34% | 1013.2 hPa | - | - | - | - |
| 1777072267 | 10° C | 40% | 1013.3 hPa | - | - | - | - |
| 1777071367 | 10.56° C | 41% | 1013.4 hPa | - | - | - | - |
| 1777070467 | 10.56° C | 41% | 1013.5 hPa | - | - | - | - |
| 1777069567 | 10.56° C | 41% | 1013.5 hPa | - | - | - | - |
| 1777068667 | 10.56° C | 40% | 1013.6 hPa | - | - | - | - |
| 1777067767 | 11.11° C | 39% | 1013.7 hPa | - | - | - | - |
| 1777066870 | 11.11° C | 37% | 1013.8 hPa | - | - | - | - |
* Rain since midnight (hover to see other rain measurements)
** Current wind speed in m/s (hover to see current wind gust speed)